Theta_e
322 323 317 313 317 317 323 327 332 337 332 332 333 331 328 326 325 324 324 322 318 318 317 317 316 315 315 316 315 316 317 319 325 319 322 329 319 315 317 314 317 319 315 317 319 318 324 325 323 325 323 319 317 316 315 313 314 313 314 315 313 314 318 317 316 319 322 322 324 324 323 321 320 320 317 317 316 319 322 322 323 323 324 324 323 324 324 324 325 326 324 323 324 325 325 325 326
321 322 316 314 318 319 327 330 333 336 333 332 332 330 328 327 326 324 324 322 321 319 318 316 315 316 315 316 314 314 316 315 320 322 324 321 317 318 317 314 317 320 317 316 317 316 321 325 324 325 325 320 318 320 319 317 316 316 316 314 313 313 316 318 314 317 320 320 323 322 321 320 319 317 315 315 315 317 318 320 322 322 323 322 323 323 323 324 325 324 323 324 324 325 325 325 326
321 321 316 315 320 321 328 328 331 334 334 335 330 327 326 326 326 325 324 320 322 318 316 314 313 315 314 316 314 315 319 315 314 320 323 317 319 319 315 316 317 320 319 315 316 316 316 321 324 326 326 323 321 323 320 318 319 318 316 314 314 314 315 316 313 316 318 318 320 320 319 318 316 315 314 314 314 315 315 317 318 319 321 322 323 323 323 324 324 323 323 324 325 325 325 326 326
319 317 314 316 321 325 329 328 332 335 332 333 329 326 327 326 324 324 323 321 320 316 314 315 314 314 314 317 315 314 317 315 311 320 326 319 319 315 313 316 317 321 320 317 316 314 314 317 322 325 328 328 326 326 322 319 321 319 317 315 314 316 315 313 313 315 315 317 318 318 317 315 314 315 314 313 312 313 314 315 316 318 321 321 322 323 323 323 323 323 324 324 325 325 325 326 326
316 314 315 317 321 325 328 328 332 333 329 330 327 326 327 326 324 323 323 321 318 315 315 315 316 314 312 315 314 315 317 315 312 315 320 318 316 314 314 315 317 320 320 319 316 313 313 314 319 324 328 329 328 328 325 323 322 319 318 316 315 315 314 313 313 313 314 316 317 316 314 313 314 314 313 312 311 313 313 315 316 318 320 321 321 323 323 323 323 323 324 325 325 325 325 326 325
314 315 316 318 320 323 325 326 329 329 328 329 326 325 326 325 323 322 322 320 317 316 315 314 316 315 313 314 313 315 316 313 313 314 316 315 315 315 315 314 315 319 319 318 316 313 312 312 316 322 326 327 328 327 326 325 323 322 320 317 317 316 314 314 314 313 314 315 316 315 311 313 315 313 311 309 309 310 312 314 315 316 318 320 321 322 323 322 323 323 324 324 325 325 325 325 324
313 317 319 320 322 323 327 327 327 327 325 325 325 324 323 323 322 322 321 319 318 317 315 314 315 316 317 315 313 313 312 312 313 314 315 314 314 316 315 314 315 317 317 316 316 313 312 312 315 320 324 326 326 326 327 325 323 323 321 317 316 315 315 316 315 314 314 315 316 312 310 313 315 312 308 306 306 307 309 311 313 314 316 319 320 322 322 322 322 323 324 324 325 325 325 324 324
314 319 323 324 326 326 330 331 326 325 324 322 322 321 321 321 322 321 321 320 320 319 316 316 315 318 319 315 315 314 310 312 313 312 314 314 315 317 315 315 315 316 316 315 314 313 312 312 315 318 322 326 327 326 327 325 325 323 320 318 316 313 316 317 315 313 313 316 314 309 309 313 314 311 306 304 304 305 306 306 309 311 312 317 320 321 322 322 322 323 324 324 325 324 324 324 324
315 317 321 322 326 327 330 331 326 324 322 322 321 321 323 322 322 321 322 322 320 319 318 317 315 319 319 314 317 315 311 312 312 313 314 314 315 316 316 314 314 314 315 315 314 313 312 312 314 316 319 324 327 326 326 326 326 323 318 319 316 312 315 317 314 312 312 314 311 307 310 313 313 310 306 304 304 304 304 304 305 306 307 311 316 320 321 321 322 322 323 324 324 323 324 324 324
319 317 321 324 326 326 327 328 327 325 323 322 322 322 323 322 322 321 321 322 320 320 317 315 314 317 318 315 319 316 312 313 313 314 314 314 315 315 315 313 313 314 314 315 315 314 312 312 313 315 316 319 324 325 325 325 324 321 318 318 315 312 315 316 314 312 313 312 309 307 310 312 312 308 306 304 303 303 303 304 304 303 303 304 310 318 319 320 322 321 323 324 323 323 323 324 324
328 323 321 323 325 326 326 326 326 325 323 323 323 322 323 322 321 321 321 320 319 319 316 312 313 316 316 317 321 315 311 315 314 314 315 315 316 315 315 313 314 314 314 314 314 315 314 312 312 313 314 315 320 323 323 324 323 321 320 319 316 315 317 316 315 315 314 312 308 308 309 311 311 307 305 304 303 303 303 303 303 303 303 301 304 313 316 317 320 320 322 323 322 323 324 324 324
332 330 324 321 323 325 326 326 325 323 323 322 323 322 324 322 319 320 321 320 319 318 317 314 314 316 316 319 322 312 310 315 314 314 316 316 316 314 314 314 314 315 315 315 315 316 316 316 316 316 317 315 316 319 322 322 322 321 320 320 318 318 320 318 316 316 315 312 309 309 309 311 311 308 306 304 303 303 303 303 303 303 303 302 301 308 312 315 319 319 320 320 322 324 323 324 324
330 330 324 322 324 325 325 326 324 324 324 322 323 323 324 322 319 320 321 321 319 319 318 315 314 315 316 320 320 313 311 315 314 315 316 316 316 314 315 314 315 316 316 316 315 316 317 319 321 322 322 320 317 316 319 320 321 320 317 321 321 319 322 320 317 315 314 313 311 309 309 312 312 309 306 304 303 303 303 303 303 303 303 302 300 305 310 315 318 318 318 319 322 324 323 323 323
326 328 323 324 327 325 325 325 324 324 324 322 323 323 323 322 321 320 319 319 320 320 318 315 314 315 317 318 321 321 314 312 313 314 315 315 315 314 315 315 316 317 317 316 316 316 318 320 322 324 323 323 320 316 317 318 319 319 318 320 319 319 322 320 315 313 313 312 311 309 309 311 310 309 306 303 303 303 303 303 303 303 303 302 301 305 310 315 316 316 318 319 321 323 323 322 320
323 328 325 326 326 324 325 325 325 325 324 322 322 324 323 323 321 319 319 318 320 319 314 312 313 315 318 317 322 324 315 311 312 312 314 315 315 315 315 316 317 317 317 317 316 316 317 319 321 322 322 322 321 317 316 316 317 318 318 318 317 319 321 319 314 311 311 309 309 309 308 309 307 306 304 303 303 303 303 303 303 303 303 303 301 305 311 314 315 316 319 319 321 322 322 320 318
324 325 323 324 324 323 324 324 325 325 324 323 322 322 321 322 319 317 318 317 318 317 313 314 313 314 318 318 320 320 313 311 310 310 314 316 316 314 314 315 316 317 317 317 316 316 316 317 319 319 320 320 320 317 314 314 316 317 317 317 317 319 320 319 315 311 310 308 307 308 307 307 306 304 303 303 303 303 303 303 303 303 303 302 301 306 312 314 315 318 319 319 320 320 320 318 317
325 322 321 322 323 323 324 325 325 325 324 323 322 321 320 321 319 317 315 314 317 316 315 317 314 313 317 317 317 314 312 311 309 311 315 316 315 314 314 314 315 317 317 317 317 316 316 316 316 316 318 318 317 317 313 312 315 316 317 318 318 319 320 319 315 311 310 308 306 306 306 305 305 304 303 303 303 303 303 303 303 303 303 302 302 307 313 315 316 319 320 319 319 319 319 318 317
322 322 322 321 320 322 324 325 324 324 323 322 321 321 318 319 319 316 314 314 316 315 315 316 314 313 314 313 312 311 312 311 310 312 314 315 315 314 314 314 315 317 317 317 317 316 316 316 315 315 315 316 316 315 313 311 312 314 317 319 318 319 321 320 316 312 311 309 306 305 305 305 304 303 303 303 302 303 304 303 303 303 303 302 301 307 313 315 317 320 320 320 320 319 319 318 317
320 325 323 321 322 322 322 323 321 321 322 321 319 318 317 317 318 316 315 317 316 316 315 315 315 314 313 312 310 310 311 311 310 311 311 312 313 314 314 314 315 316 317 317 317 316 316 316 315 315 314 315 315 314 312 310 310 312 314 317 318 318 320 321 318 313 311 309 306 304 304 304 304 303 303 302 303 305 305 304 303 303 303 302 300 306 314 316 319 320 320 320 319 319 319 319 317
320 322 320 322 325 322 321 320 319 319 319 318 317 317 317 317 318 316 316 318 317 316 316 316 316 316 316 315 312 309 309 310 310 311 310 310 312 313 313 313 314 315 316 315 316 316 316 317 316 315 314 314 314 313 312 309 309 310 311 314 317 317 319 321 320 316 312 310 307 304 304 304 303 303 303 303 305 307 307 306 305 303 302 302 300 306 314 317 320 320 320 320 319 318 319 319 317
319 317 318 324 324 320 319 319 318 318 318 318 318 317 317 316 317 316 316 317 317 317 316 316 316 316 316 316 315 310 309 310 309 310 309 310 311 312 313 313 313 314 314 314 316 316 315 316 316 315 315 315 314 312 310 309 308 309 310 311 315 317 318 319 320 318 315 311 308 304 304 304 303 303 302 304 307 308 307 307 305 304 303 303 303 308 315 318 320 320 320 320 318 318 318 318 316
317 316 317 321 320 318 317 317 318 318 318 318 318 317 316 316 316 316 317 317 317 317 317 317 316 316 315 315 315 313 314 314 311 311 309 308 310 311 312 312 313 313 313 314 314 314 314 315 315 315 315 314 314 312 310 308 307 308 309 310 313 316 317 317 319 319 316 313 309 305 304 304 303 303 303 305 308 308 308 307 305 305 305 305 306 311 315 318 320 320 320 319 318 318 318 317 316
315 316 317 317 316 315 316 316 317 318 317 316 315 315 315 315 315 316 316 316 316 316 317 317 316 315 313 313 315 315 317 316 313 312 310 309 309 310 311 311 312 313 313 313 313 312 313 314 314 315 315 314 313 312 311 309 308 306 307 308 310 313 315 316 317 317 316 313 310 306 304 304 304 303 303 306 308 308 308 307 306 306 306 306 308 314 316 317 319 320 320 319 318 318 318 317 315
314 316 316 316 315 314 314 314 315 316 315 314 314 314 314 313 314 314 315 315 315 315 315 315 315 313 311 313 315 314 315 315 312 309 309 310 310 310 311 311 311 311 311 312 312 312 312 312 313 314 314 314 313 313 312 310 309 307 307 308 309 310 313 315 314 314 314 312 310 307 304 303 303 303 304 307 308 308 308 307 306 306 307 306 309 314 315 315 318 319 320 320 318 318 318 317 315
314 315 315 315 315 314 313 313 314 314 313 313 313 313 312 312 312 313 313 313 314 314 314 314 314 313 313 313 313 313 313 313 312 308 308 309 310 311 311 311 311 311 310 311 311 311 312 312 312 312 313 313 313 313 313 312 310 309 307 307 307 308 310 311 311 311 312 311 309 307 304 303 303 303 304 307 308 308 308 307 306 306 308 307 308 311 313 314 316 318 319 320 318 318 318 316 315
314 314 314 313 313 313 314 313 312 313 312 312 312 311 311 311 311 312 312 313 313 314 314 314 314 313 313 312 312 312 312 312 312 310 309 309 309 310 310 311 310 311 312 311 311 312 312 312 312 312 312 312 313 313 313 312 312 310 309 308 307 307 307 308 309 310 310 310 308 306 304 302 303 303 304 307 308 308 308 307 306 306 308 308 307 308 311 313 316 318 319 319 319 318 317 315 314
312 312 312 312 312 313 313 313 313 312 312 312 312 311 311 311 312 313 313 313 313 313 314 313 313 312 311 311 311 311 311 311 311 310 310 309 308 308 309 310 310 311 312 311 312 312 313 312 312 312 312 312 312 313 313 312 312 311 310 309 309 308 308 310 311 312 310 310 307 304 303 302 302 304 305 306 308 308 308 307 306 306 308 308 307 307 309 313 315 318 319 319 318 317 316 315 314
309 311 311 312 312 311 311 311 312 311 310 312 311 311 311 311 312 312 312 314 313 313 313 312 311 310 310 310 309 310 310 309 307 308 309 308 307 307 308 309 310 311 311 312 312 313 313 313 313 313 312 312 312 313 312 312 312 312 311 311 310 310 311 313 313 314 313 311 307 305 304 302 302 304 305 306 307 307 307 307 306 306 307 307 307 306 308 312 314 318 319 318 318 316 315 314 313
308 310 310 311 311 309 310 310 310 309 309 311 311 311 311 311 312 312 312 313 313 312 311 310 310 309 308 308 308 308 308 307 306 307 307 307 307 307 307 309 310 310 311 312 312 312 313 313 313 313 313 312 313 312 312 312 312 312 312 312 311 312 313 314 315 314 313 311 307 306 306 305 303 304 305 305 306 307 307 308 307 306 306 306 307 305 308 312 314 317 319 318 317 316 315 313 313
308 309 308 310 310 310 310 309 309 309 309 311 311 311 311 311 311 311 311 312 312 311 309 308 308 307 307 307 307 307 307 307 307 306 306 306 307 308 308 309 309 310 311 311 312 312 312 313 313 313 313 313 313 312 312 312 312 312 312 312 312 312 313 314 315 314 312 310 307 307 308 307 305 305 305 305 306 308 308 309 308 306 305 306 307 305 307 311 313 317 319 318 317 315 314 313 313
309 310 310 310 310 313 313 311 310 309 309 311 311 311 310 310 310 311 311 310 310 309 308 308 307 306 307 307 307 307 307 307 306 305 306 307 307 308 308 309 309 310 310 311 312 313 313 313 314 313 313 313 313 313 312 312 312 312 312 312 312 313 314 314 315 314 312 309 307 309 309 308 307 306 306 305 306 308 309 309 308 306 305 306 307 306 307 309 312 317 318 317 316 314 314 313 312
314 310 313 315 311 311 313 311 311 310 309 308 310 311 309 308 310 310 310 308 308 308 308 307 306 306 306 307 307 307 307 307 305 304 305 306 307 308 308 309 310 310 310 311 311 312 313 313 313 314 313 313 314 313 313 312 312 312 312 312 312 313 314 314 314 313 311 308 308 309 310 309 308 307 307 306 306 309 309 309 308 306 306 307 308 307 307 307 310 315 316 315 316 314 314 312 311
320 311 313 318 313 311 311 310 310 309 308 307 309 311 309 309 310 310 308 307 307 307 307 306 306 307 307 306 306 306 307 307 306 305 304 305 306 307 308 309 309 309 310 310 311 311 312 313 313 314 314 314 314 313 313 312 312 311 312 312 312 313 313 314 314 313 311 309 308 309 310 310 309 308 307 306 306 309 309 309 308 306 306 308 307 307 308 306 309 314 315 316 316 314 313 312 310
316 312 312 316 314 311 311 312 310 308 308 308 308 308 308 309 309 309 308 307 307 306 306 307 307 307 306 307 306 306 307 307 308 306 304 305 306 306 307 308 308 309 309 309 310 311 311 312 313 313 313 314 313 313 313 312 311 311 311 311 312 312 312 313 313 312 311 309 309 310 310 310 309 308 308 307 307 308 309 308 308 307 306 308 307 307 307 305 309 314 315 316 315 313 313 312 310
314 315 313 315 316 312 310 312 311 308 308 309 308 307 307 308 307 308 308 307 307 306 306 307 307 306 306 306 306 306 306 306 307 306 305 305 306 306 307 307 308 308 308 309 309 310 310 311 312 313 314 313 313 313 312 311 311 310 311 311 311 312 312 312 312 311 310 309 310 310 310 310 310 309 308 307 307 308 309 308 308 307 306 307 307 308 307 307 314 316 314 316 315 313 313 312 310
318 318 313 315 315 312 310 310 310 309 308 309 308 307 307 307 307 307 307 307 307 306 306 306 306 306 306 306 307 307 307 307 306 304 304 306 307 308 308 308 308 308 308 308 308 309 310 311 311 312 313 313 313 312 311 310 310 310 310 310 311 311 311 311 311 311 310 310 310 310 310 310 310 309 308 308 307 307 308 308 308 307 306 306 307 307 306 309 316 316 315 316 314 313 312 311 310
316 315 314 315 313 311 310 309 311 309 308 310 309 308 308 307 307 307 307 308 307 306 306 306 307 307 308 308 308 309 308 309 309 307 307 308 309 310 311 310 309 308 308 308 308 309 310 310 311 312 312 313 313 312 311 310 309 309 309 310 310 310 310 310 310 310 310 310 310 310 310 310 309 309 308 308 308 307 307 308 308 307 306 305 306 307 305 308 314 316 316 316 315 313 311 310 309
313 313 314 314 312 311 310 310 311 308 308 312 311 310 309 308 308 308 308 308 308 308 307 307 307 308 308 308 309 310 310 313 317 317 314 310 310 311 311 311 310 309 309 309 309 309 310 311 311 312 312 313 313 312 312 311 310 310 310 310 310 310 310 310 310 310 310 310 310 311 310 309 309 308 308 308 308 307 306 307 307 306 305 305 306 307 305 306 311 315 316 315 315 314 312 310 308
314 314 313 313 313 313 312 312 313 309 309 312 312 311 309 309 310 308 309 309 308 308 308 308 309 309 310 310 311 310 313 319 320 321 320 313 311 312 311 311 310 310 310 310 310 311 311 311 311 312 312 312 313 312 312 312 311 311 310 310 310 309 310 310 310 310 310 310 310 310 310 309 309 308 308 308 308 307 306 306 306 305 305 305 306 307 305 305 309 314 316 315 314 312 311 310 309
315 314 314 314 312 312 313 314 315 312 310 311 312 311 309 309 309 310 311 310 310 311 311 311 311 311 312 311 311 312 318 325 321 320 323 317 312 311 312 312 311 310 310 309 310 311 311 312 312 312 312 312 313 312 312 312 311 311 310 310 309 309 310 310 310 310 309 309 309 310 309 309 309 309 309 309 308 308 306 306 306 305 305 305 306 307 306 305 307 313 316 316 313 311 310 309 309
315 314 314 313 312 313 313 313 314 312 313 314 312 311 314 316 314 315 316 312 312 313 313 314 313 313 314 313 315 317 322 326 324 324 324 324 322 315 311 312 312 311 311 310 310 310 310 312 312 312 312 312 312 312 312 312 311 310 309 309 309 309 309 309 309 309 309 309 309 309 309 309 309 309 309 308 308 308 307 306 306 305 305 305 306 307 306 304 306 312 315 315 313 311 310 309 309
317 317 315 313 312 313 312 312 312 312 316 317 312 313 321 324 319 317 316 312 312 311 312 314 313 317 320 320 323 323 323 326 328 329 328 329 332 323 312 311 312 311 311 311 310 309 309 310 311 312 312 312 312 312 312 312 311 310 309 309 308 308 308 309 309 309 309 309 309 309 309 309 309 309 309 308 308 308 307 306 306 306 305 305 306 306 306 304 305 311 314 314 314 312 310 309 309
315 317 316 315 313 313 313 312 312 314 317 315 313 314 317 317 312 312 312 310 312 311 311 312 312 320 326 324 327 326 325 326 325 328 330 328 330 329 319 313 313 313 313 312 310 309 308 308 309 310 312 312 312 312 312 312 311 310 310 309 309 309 308 308 309 309 309 309 309 309 309 309 309 309 309 308 308 308 307 306 305 306 305 305 305 306 306 304 304 308 312 313 313 313 311 309 309
317 316 317 319 314 314 316 314 314 318 317 315 316 314 313 313 313 315 314 312 315 314 313 316 318 324 327 325 327 328 328 328 327 328 326 324 328 330 320 314 313 314 313 312 310 309 309 308 308 308 310 311 312 312 312 312 311 310 310 309 309 309 309 309 309 309 309 309 309 309 309 309 309 309 309 309 308 308 307 307 305 305 305 305 305 305 305 304 304 306 309 312 313 313 312 310 309
318 314 315 318 314 315 318 317 318 318 314 316 319 314 313 318 321 321 316 314 318 318 318 322 322 323 325 324 324 326 327 328 330 328 323 325 326 318 311 311 314 314 313 312 310 309 309 308 308 308 309 310 311 312 312 312 311 311 310 309 309 309 309 309 309 309 309 309 309 309 309 309 309 309 309 309 308 308 308 307 306 305 305 305 305 305 305 304 303 304 307 310 312 313 313 311 309
314 311 315 321 320 320 318 316 317 316 312 314 318 315 313 319 326 325 316 313 320 324 323 324 323 322 323 324 323 325 326 324 324 324 325 326 318 309 309 312 313 313 313 312 311 310 309 308 308 308 308 309 310 311 311 311 311 311 310 310 309 309 309 308 309 309 309 309 309 309 308 309 309 309 309 309 309 308 308 307 306 305 305 305 305 305 305 304 304 304 305 307 310 312 312 312 310
314 314 318 321 322 322 322 321 316 312 316 319 319 315 312 316 326 326 316 313 320 324 320 319 321 321 321 323 326 326 324 321 321 322 324 322 311 306 309 311 312 313 312 311 311 310 309 308 308 308 308 309 309 310 311 311 311 311 310 310 309 309 309 308 308 308 309 309 308 309 308 308 309 309 309 309 308 308 308 307 307 306 305 305 305 305 305 305 304 303 304 306 309 311 311 312 310
315 320 318 315 319 320 321 323 317 313 322 325 320 315 311 313 321 322 317 314 318 319 314 315 319 320 320 323 328 327 322 321 323 324 324 323 316 311 310 309 310 311 310 310 310 309 309 308 308 308 308 309 309 310 310 310 310 310 310 310 309 309 309 308 308 308 308 308 309 308 308 308 308 309 309 309 309 308 308 307 307 306 306 305 305 305 305 305 305 304 304 305 307 309 310 311 311
316 320 315 311 316 314 314 320 319 318 321 317 315 313 312 314 315 313 314 315 316 315 312 313 315 318 322 324 327 325 321 323 326 326 326 326 323 322 319 312 308 309 309 309 309 308 308 308 307 308 308 308 309 309 309 309 309 310 310 310 309 309 309 309 309 308 308 308 309 308 308 308 308 308 308 309 308 308 308 308 307 307 306 305 305 305 304 305 305 304 304 304 305 306 308 310 310
314 317 315 314 314 311 314 319 317 318 319 313 310 312 315 317 313 312 314 313 313 312 311 313 314 317 320 323 326 324 323 327 329 328 329 330 328 330 326 311 305 308 309 309 308 307 308 308 307 307 307 308 308 309 309 309 309 309 309 309 309 309 309 309 309 308 308 308 308 308 308 308 308 308 308 309 308 308 308 308 307 307 306 306 305 305 305 305 305 305 305 304 304 304 305 308 308
313 317 316 316 319 318 320 321 319 321 323 316 310 312 321 323 316 314 313 311 312 311 312 314 315 317 316 318 323 323 323 328 329 329 332 332 331 332 322 307 305 309 310 309 309 307 307 308 307 307 307 307 307 308 309 309 309 309 309 309 309 309 309 309 309 309 308 308 308 308 308 308 308 308 308 309 308 308 308 308 308 307 307 306 306 305 305 305 305 305 305 305 304 304 304 306 306
313 314 313 315 320 320 318 317 319 318 317 317 315 317 324 320 313 312 310 311 312 310 312 315 316 317 316 318 322 323 324 326 327 329 331 330 330 329 315 305 307 310 310 311 310 308 308 307 307 307 307 307 307 307 308 309 309 309 309 309 309 309 309 309 309 308 308 308 308 308 308 308 308 308 308 308 308 308 308 308 308 308 307 307 306 306 306 305 305 305 305 305 305 305 305 305 305
313 312 315 317 313 313 315 314 312 310 312 317 316 315 318 313 312 316 315 316 315 310 312 315 316 317 319 322 323 323 324 324 324 328 329 327 327 323 310 304 307 310 310 311 310 309 309 307 307 307 306 307 307 307 308 308 309 309 309 309 309 309 309 309 309 309 308 308 308 308 308 308 308 308 308 308 308 308 308 308 308 308 308 307 307 306 306 306 305 305 305 305 305 305 305 305 305
313 314 317 315 308 311 316 315 314 313 315 321 317 313 314 313 315 322 320 319 319 314 311 313 315 318 321 323 321 319 319 319 320 323 326 325 325 323 310 303 308 310 309 310 309 310 309 308 308 307 307 307 307 307 308 308 309 309 309 309 309 309 309 309 309 309 309 308 308 308 308 308 308 308 308 308 308 308 308 308 308 308 308 307 307 307 306 306 306 306 305 305 305 305 305 305 305
310 313 311 310 313 317 316 313 318 315 314 322 323 317 314 313 317 321 316 314 318 316 312 311 314 319 323 321 318 317 316 317 319 321 323 322 324 325 311 303 307 309 309 309 308 309 309 308 309 308 308 308 307 307 307 307 308 308 308 308 308 308 308 309 309 309 309 309 308 308 308 308 308 308 308 308 308 308 308 308 308 308 308 308 308 307 307 307 306 306 306 305 305 305 305 305 305
307 309 309 309 314 319 315 314 319 318 314 319 325 325 319 314 317 320 315 314 316 315 314 315 315 317 319 317 316 318 319 320 320 320 321 321 323 321 307 303 308 308 309 309 308 308 308 308 308 308 308 308 308 308 307 307 307 307 308 308 308 308 308 308 309 309 309 309 309 309 308 308 308 308 308 308 308 308 307 308 308 308 308 308 308 307 307 307 307 306 306 306 306 305 305 305 304
309 311 313 311 311 313 313 312 315 320 321 319 320 323 320 316 317 319 315 315 316 315 316 320 320 318 317 316 317 320 321 322 321 321 321 320 323 317 304 304 309 308 308 309 308 308 308 308 308 307 308 308 308 308 307 308 308 307 308 308 308 308 308 308 308 308 308 309 309 309 308 309 309 308 308 308 308 308 308 308 308 307 308 307 308 307 307 307 307 306 306 306 306 305 305 305 305
312 312 314 313 312 314 313 312 313 315 318 320 319 317 316 316 317 315 313 313 314 315 316 321 327 324 318 317 319 320 321 322 323 324 322 321 326 321 306 303 306 307 308 309 309 309 308 308 308 307 308 308 307 308 307 308 308 308 308 308 308 308 308 308 308 307 308 308 308 309 309 309 309 309 309 308 308 308 308 308 308 307 307 307 307 307 307 307 306 306 306 306 306 305 305 305 304
Wind_Speed
16 16 15 13 13 7 3 0 0 2 2 2 3 2 4 5 2 3 7 5 1 3 4 3 2 3 1 4 6 6 5 6 6 5 5 5 3 9 13 18 15 10 16 19 23 25 24 25 23 22 21 20 19 17 17 16 16 15 15 15 15 15 14 13 13 11 10 9 7 7 6 5 5 5 4 3 3 2 2 2 2 2 2 2 2 3 5 5 6 6 7 8 8 9 9 10 11
16 16 14 13 10 2 2 1 1 2 1 4 4 3 4 1 3 5 8 7 5 4 2 3 2 2 3 4 5 3 3 6 6 5 3 2 3 11 15 18 17 12 16 19 22 25 25 25 23 22 21 20 19 18 18 17 17 16 16 15 15 15 14 13 13 12 10 10 8 8 7 6 6 5 4 3 3 3 3 3 2 2 3 2 2 3 4 5 5 6 7 7 8 9 10 10 12
17 16 14 12 6 1 0 2 2 2 3 5 4 6 3 3 5 7 8 8 7 3 1 2 2 2 5 4 3 3 4 5 5 3 1 3 5 10 18 19 17 13 15 19 21 25 25 25 24 22 21 21 20 19 19 18 17 17 16 16 15 15 14 14 13 12 11 11 9 8 8 7 6 5 4 4 4 4 4 4 3 3 3 2 1 3 4 5 5 6 7 7 8 9 10 11 12
16 14 12 8 3 1 2 0 2 4 4 4 4 7 3 3 6 7 7 7 7 2 1 1 1 1 4 1 3 2 4 4 5 6 1 8 10 9 18 19 17 15 16 19 21 25 25 25 25 22 21 21 20 19 19 18 17 17 17 16 16 15 15 14 14 13 12 11 10 9 8 7 6 5 5 5 4 4 4 4 3 3 3 2 1 3 4 4 5 6 7 7 8 9 10 11 12
15 12 11 4 0 1 2 2 2 4 5 4 4 5 3 5 5 7 7 6 6 4 3 1 1 3 0 2 3 1 5 3 4 9 4 10 14 10 17 19 18 18 18 20 21 24 25 25 25 23 22 21 20 20 19 18 17 17 17 17 16 16 15 15 14 14 13 12 11 10 9 8 7 7 6 5 5 5 4 4 3 3 3 2 2 2 4 4 5 5 6 7 8 9 10 11 11
12 8 6 3 1 0 1 3 3 4 5 5 5 6 3 4 5 8 8 7 7 6 4 1 2 2 1 3 3 3 5 2 1 9 7 9 15 13 16 19 19 20 20 20 21 24 25 25 26 23 22 21 21 20 19 19 18 17 17 17 16 16 16 15 15 14 14 13 12 11 10 9 8 8 7 6 6 5 5 4 4 4 3 3 2 3 3 4 5 5 6 7 8 9 10 10 10
8 4 2 2 1 1 2 4 5 4 5 5 5 8 6 4 6 7 8 5 5 6 4 4 2 2 2 3 2 4 4 4 3 6 9 10 16 16 18 19 20 21 20 21 21 23 24 25 26 24 22 21 21 20 20 19 18 18 17 17 17 17 16 15 15 15 14 13 12 11 10 10 9 9 8 7 6 6 6 5 5 5 4 3 3 3 3 4 5 5 6 6 7 8 9 9 9
4 3 0 2 2 1 3 4 5 4 5 5 4 9 9 6 6 6 6 3 3 5 4 5 3 2 5 2 2 5 3 8 5 5 10 12 16 18 19 20 20 21 21 21 21 23 25 26 26 25 23 21 21 21 20 19 18 18 17 17 17 18 17 16 16 15 15 13 13 12 11 10 10 9 8 7 6 6 6 6 6 6 5 4 4 4 4 4 4 5 5 6 7 8 8 9 9
2 4 0 2 3 2 3 4 5 4 5 5 5 10 10 7 5 4 7 8 6 5 5 5 4 3 4 1 3 6 2 10 10 8 12 13 17 19 20 20 20 21 21 22 21 22 25 26 27 26 24 22 21 21 20 19 19 19 19 18 18 18 17 17 16 16 15 14 13 12 12 11 11 10 8 7 6 6 6 7 7 7 6 5 5 4 4 4 4 4 4 6 7 7 8 8 9
0 3 1 2 3 5 6 4 4 4 6 6 7 11 11 8 4 5 7 10 8 5 6 2 2 3 3 2 4 4 3 9 10 11 14 15 17 19 20 19 18 19 21 22 22 22 24 26 27 26 25 24 22 21 21 20 20 19 19 19 19 19 18 17 17 16 16 15 14 13 12 12 11 10 9 8 7 7 6 7 7 7 6 6 6 5 5 5 5 4 3 6 6 7 7 8 9
0 2 1 3 4 7 7 5 5 4 5 5 6 9 10 8 4 7 7 10 8 5 4 2 2 4 2 3 4 3 3 10 13 15 16 17 18 19 19 18 18 18 19 21 22 22 23 25 26 26 25 24 24 23 22 21 20 20 19 20 20 19 18 18 17 16 16 15 14 14 13 13 12 11 9 8 7 7 7 7 7 7 7 7 7 7 7 6 5 3 3 5 5 6 6 8 9
1 1 1 4 6 6 5 6 7 5 6 6 7 6 7 7 4 7 8 8 5 3 4 5 3 4 2 4 4 4 3 14 16 14 18 19 18 18 17 18 18 19 19 19 21 22 23 24 25 25 25 24 25 25 24 22 21 20 20 19 20 19 17 18 17 16 16 16 15 14 14 13 12 11 10 9 7 7 7 7 7 8 7 6 7 8 8 6 5 3 3 4 4 4 6 8 9
3 2 1 5 4 4 5 5 6 5 7 6 6 6 6 7 7 8 7 6 4 2 6 8 3 3 3 4 4 5 4 15 16 13 18 18 17 17 18 19 19 20 20 20 21 22 23 24 24 25 24 24 25 26 25 24 22 22 21 19 19 19 17 18 17 17 17 16 16 15 14 14 13 11 10 9 8 8 7 7 8 8 7 7 7 8 8 7 5 4 3 3 2 4 6 8 9
3 3 4 3 2 4 5 5 5 6 7 4 4 6 5 5 8 8 5 7 7 4 4 6 5 2 3 3 4 5 6 14 16 15 17 18 18 18 19 20 20 21 21 22 22 23 24 24 25 25 25 25 25 26 26 25 24 23 22 21 20 19 18 19 19 18 18 17 17 16 15 14 14 12 11 10 8 8 8 8 8 8 7 6 7 7 8 7 5 2 2 2 1 3 6 8 9
5 2 3 2 3 5 5 6 6 7 6 4 5 7 6 6 7 7 6 7 9 5 1 2 5 2 4 3 4 6 7 11 17 15 17 18 18 19 20 21 21 21 22 23 24 24 25 26 26 26 26 26 26 27 27 27 26 24 24 23 22 21 19 20 20 19 19 19 18 17 16 15 14 12 11 10 9 8 8 8 8 8 7 6 6 7 8 7 5 1 1 2 2 3 5 8 10
4 3 2 3 5 5 4 5 6 7 5 4 7 7 6 8 6 5 6 5 5 3 1 3 4 2 4 6 8 7 4 10 17 16 18 20 19 20 20 21 22 22 23 24 25 26 27 27 28 28 28 28 27 28 28 28 27 25 24 24 23 22 21 21 21 20 20 20 19 18 17 16 14 12 11 11 10 9 9 9 8 8 7 6 6 6 8 7 4 2 2 2 1 3 5 8 10
2 3 3 4 5 6 4 4 5 5 4 5 7 6 6 8 5 3 3 2 3 4 2 4 3 2 5 7 8 5 4 12 17 18 19 19 19 19 18 20 22 25 27 27 28 28 28 29 29 29 29 29 28 28 29 29 28 26 25 25 24 23 23 22 22 21 21 21 20 19 18 16 14 12 12 11 11 10 9 9 8 7 6 6 6 6 8 6 4 4 2 1 0 3 5 8 10
2 2 4 6 5 5 4 4 5 4 4 5 6 5 5 6 5 2 2 2 3 4 5 5 6 6 8 11 9 4 8 15 18 20 18 17 17 16 17 21 24 28 30 30 30 30 30 31 30 31 30 30 29 29 30 30 29 28 27 26 25 24 24 24 23 23 22 22 21 20 19 16 14 13 13 12 12 11 10 8 7 6 6 6 6 6 8 7 5 5 3 1 1 3 5 8 10
3 3 4 6 5 3 4 5 5 5 5 6 5 6 4 6 5 2 4 7 5 5 7 5 7 10 11 14 11 4 11 16 20 21 18 17 17 17 19 22 25 27 30 32 33 33 33 32 32 32 32 31 31 31 31 31 30 29 29 28 27 26 26 25 25 24 23 23 22 21 19 17 15 14 13 12 12 11 10 8 7 6 6 6 6 7 8 8 7 5 4 2 1 3 5 7 10
3 3 4 6 4 5 6 7 9 8 7 7 7 8 8 7 5 1 5 10 7 7 10 7 8 11 11 13 9 6 12 15 18 18 17 20 22 23 23 23 25 29 33 35 34 34 35 34 33 33 32 32 32 32 32 32 31 31 30 30 29 28 27 27 26 25 25 24 23 22 20 18 16 15 14 13 13 12 11 8 7 7 7 7 6 8 9 9 8 5 4 2 1 3 5 7 9
3 4 6 5 5 6 8 10 11 11 10 9 8 9 11 10 6 4 6 9 7 10 12 11 12 14 13 12 8 7 10 11 13 15 16 19 22 23 25 27 30 33 34 33 33 35 35 35 35 34 33 33 33 33 33 33 33 33 32 31 31 30 29 29 28 28 26 25 24 22 20 18 17 15 15 14 14 13 11 9 8 7 8 7 6 8 10 10 8 5 4 3 1 3 5 7 9
2 5 6 6 5 5 8 10 10 10 11 10 10 10 9 9 7 6 9 10 11 12 10 10 13 13 12 12 8 6 8 10 12 13 16 18 20 22 27 29 30 31 30 30 34 36 36 36 36 35 35 34 35 35 34 34 34 35 34 33 33 32 31 31 30 30 29 27 25 23 21 20 18 17 16 16 15 13 11 9 8 8 9 8 7 9 11 10 8 5 4 3 2 3 5 7 8
4 5 4 7 8 7 8 8 8 8 8 9 8 9 7 8 9 8 11 13 15 16 9 8 11 11 9 9 7 6 8 11 12 15 19 21 22 25 30 31 31 32 31 33 36 36 36 37 37 36 36 36 36 36 35 35 36 36 36 35 35 34 33 33 32 32 31 29 27 24 22 21 20 18 18 18 16 14 12 10 9 10 10 8 8 10 11 10 8 5 4 3 2 4 5 6 7
5 5 4 7 9 9 10 9 9 8 9 9 8 8 10 11 12 10 10 12 19 19 10 11 14 11 8 8 10 9 10 12 13 20 27 27 29 32 34 35 36 36 33 35 37 36 37 37 37 38 37 38 38 37 37 37 37 36 36 36 36 36 35 35 34 33 32 31 28 26 24 22 21 20 20 19 17 15 13 12 11 11 11 9 9 10 10 10 8 6 5 4 4 5 5 6 7
5 7 6 6 7 8 10 10 10 9 9 9 10 12 14 15 13 12 12 16 22 17 10 14 17 13 9 11 14 13 14 15 15 20 25 28 30 33 35 36 35 32 32 37 37 36 38 37 37 39 39 39 38 38 38 38 37 37 37 37 37 37 37 36 35 34 34 32 29 27 25 24 22 21 21 20 18 16 15 14 13 13 12 10 10 11 11 10 9 7 6 6 6 6 5 5 6
6 8 8 7 8 8 9 9 9 10 7 7 10 14 17 15 10 13 17 23 24 14 14 19 18 16 13 14 15 16 18 18 16 17 21 26 27 28 33 35 32 32 37 38 37 38 39 38 38 39 39 39 39 39 39 39 38 38 38 38 37 37 37 36 35 35 34 33 31 28 27 26 24 23 22 20 18 17 17 15 14 14 13 11 11 11 11 11 10 9 8 8 7 6 5 5 6
4 6 8 8 10 9 6 7 10 10 8 9 11 15 19 10 2 11 17 17 15 11 16 16 12 14 13 14 15 15 16 17 18 18 19 21 21 25 30 32 32 38 39 37 38 40 39 38 38 39 39 39 39 39 40 39 39 39 39 38 37 37 36 35 35 35 35 34 32 29 28 27 25 24 23 21 19 18 18 16 15 15 14 13 13 12 12 12 11 10 9 8 8 6 5 4 6
3 4 5 8 8 7 6 8 11 8 7 9 10 14 18 4 3 20 18 5 5 9 13 10 9 12 12 14 14 12 12 15 19 15 13 16 19 23 27 30 35 38 38 38 42 40 38 38 39 39 39 39 40 40 40 40 40 40 39 38 38 37 36 35 35 35 34 34 32 29 28 28 27 26 24 22 20 19 19 16 15 16 15 14 14 13 13 13 12 10 9 9 8 6 5 4 5
4 1 3 9 7 7 11 12 12 7 6 7 5 9 14 6 14 28 18 5 8 13 13 9 11 13 12 13 11 10 11 13 13 11 15 21 25 26 28 34 37 36 39 42 41 38 38 39 39 39 39 39 40 40 40 40 40 39 39 39 38 37 36 36 36 35 34 32 31 29 27 27 28 27 25 23 20 19 19 17 15 16 14 14 14 14 14 14 12 11 10 9 8 7 5 4 4
4 1 2 6 6 7 11 9 9 8 7 7 7 6 12 13 22 25 15 9 13 15 13 10 10 10 9 10 9 10 11 11 11 14 22 27 29 30 31 36 37 36 39 39 37 36 38 38 38 38 38 39 40 40 41 40 40 39 39 39 38 38 38 37 37 35 34 32 31 29 27 27 27 27 25 24 22 20 19 17 17 15 13 14 15 15 15 15 14 13 11 10 9 8 6 4 4
2 2 2 2 2 6 7 5 5 5 5 8 10 7 13 15 17 15 9 8 10 11 12 9 9 8 8 9 8 10 11 10 13 19 26 29 31 32 31 35 35 34 36 35 35 36 37 36 36 37 37 38 40 40 41 41 41 40 39 39 39 39 39 39 38 36 34 32 31 29 27 27 26 26 25 24 23 21 20 19 18 15 14 15 16 15 15 15 15 14 13 12 11 8 7 5 4
1 2 3 2 3 5 8 6 6 7 4 6 10 6 12 16 14 10 5 3 5 8 10 9 10 10 10 10 8 9 11 10 13 19 26 29 30 31 31 34 34 33 34 34 35 34 33 34 35 36 36 38 39 40 41 41 41 40 40 40 39 39 39 39 38 37 35 33 32 30 28 27 26 26 25 25 25 23 22 21 19 16 16 17 16 16 15 15 15 14 13 14 13 10 8 5 3
2 2 4 4 4 4 6 6 4 5 1 3 9 6 8 10 8 8 2 2 4 7 10 11 13 14 12 10 8 9 10 10 10 14 23 28 30 32 32 34 34 33 34 34 33 32 31 32 33 35 36 37 39 40 40 40 40 40 39 39 39 39 39 39 39 37 35 34 33 32 30 28 27 26 25 26 26 25 23 22 19 17 17 17 17 17 16 15 16 15 14 13 13 10 9 6 4
3 2 4 4 5 4 4 6 5 0 3 4 9 9 12 12 10 12 9 6 8 10 12 14 14 14 12 10 9 9 9 11 11 11 20 27 28 29 30 31 33 32 32 32 32 32 31 31 33 34 36 36 37 38 39 39 39 38 38 38 38 38 39 39 38 37 36 36 35 33 31 29 28 27 26 26 27 26 24 23 21 18 18 18 18 18 16 16 17 16 15 14 13 11 9 7 5
4 3 3 4 4 5 6 5 4 2 2 6 7 10 16 18 16 16 14 10 11 13 13 14 15 14 12 10 10 10 10 12 12 12 18 22 23 26 26 28 30 30 30 30 31 31 30 30 31 33 34 35 35 36 36 36 35 35 34 34 35 36 37 38 38 38 37 37 36 35 32 31 30 28 27 27 28 28 26 24 22 20 20 19 19 18 17 18 19 18 16 16 15 12 9 7 6
6 4 3 5 5 7 7 6 5 3 4 6 8 10 15 18 17 15 15 10 10 13 12 12 13 12 11 10 10 10 11 12 12 13 18 19 18 20 20 21 25 26 27 27 27 28 28 28 28 30 32 33 33 33 32 32 32 31 31 31 33 35 36 37 37 38 38 38 38 36 34 32 31 30 28 28 29 29 28 26 23 22 21 21 21 20 19 21 21 19 18 17 16 13 10 8 7
3 3 4 6 6 8 8 7 6 3 3 7 7 9 14 18 17 16 15 11 11 13 13 14 13 11 11 11 11 10 11 11 8 10 14 12 10 9 10 13 16 18 20 22 23 26 27 27 27 29 31 31 32 32 32 32 32 30 29 31 33 34 35 36 37 38 38 39 38 37 35 34 32 31 30 29 30 30 29 27 25 24 22 22 23 21 20 22 21 19 19 17 16 15 13 11 10
6 5 5 6 5 8 9 7 6 2 3 5 5 8 15 17 16 17 16 12 14 14 13 15 14 12 11 10 12 10 9 8 6 5 6 7 8 7 7 8 10 12 14 17 20 23 25 25 26 28 29 31 32 33 33 34 35 34 33 33 34 33 34 36 37 39 39 39 38 37 36 35 33 32 31 31 30 30 30 28 26 25 24 23 22 20 20 22 22 21 21 19 17 16 15 13 14
5 4 4 6 4 5 8 5 3 1 1 4 7 9 16 18 17 20 19 15 14 12 11 13 13 12 11 11 9 8 8 7 5 5 5 6 5 6 7 7 8 9 10 14 16 19 22 23 24 26 27 30 32 33 34 34 35 36 34 33 32 31 32 36 37 37 38 38 38 37 36 36 35 33 33 32 31 30 30 29 27 26 25 24 23 22 21 23 23 22 23 21 18 17 15 15 16
4 4 3 5 3 2 5 4 4 3 2 4 7 9 14 17 16 17 16 13 11 10 10 11 10 11 13 11 8 7 8 6 6 7 5 3 2 4 7 8 8 8 9 11 14 16 20 22 23 25 26 28 30 32 33 33 32 32 31 29 29 29 29 32 34 33 35 37 37 37 37 37 36 35 34 33 32 31 30 30 28 26 26 25 24 24 23 24 25 25 24 24 21 18 16 17 19
4 5 5 6 6 4 6 5 7 7 3 2 4 7 9 10 10 11 8 6 7 6 7 9 8 10 11 10 8 7 8 7 8 7 6 4 4 6 7 8 8 9 10 11 13 15 17 20 21 23 24 26 28 29 30 31 29 27 26 22 21 24 24 26 29 30 33 36 37 38 39 38 37 36 35 34 32 31 31 30 29 27 27 26 26 25 25 25 26 26 26 25 24 22 19 18 20
4 5 8 10 8 7 8 6 7 6 5 3 5 4 6 6 6 10 8 8 9 5 5 9 8 8 8 7 7 7 6 6 6 6 6 5 6 6 5 5 6 7 9 11 13 14 15 16 18 19 22 23 25 27 29 30 29 28 26 23 22 22 21 25 30 31 32 35 36 38 38 38 38 37 36 34 33 32 31 31 30 29 28 28 28 26 25 26 27 27 27 27 26 24 20 18 20
4 3 5 7 5 5 6 4 2 1 4 2 3 1 6 8 7 11 11 11 13 11 9 9 8 7 6 6 6 6 6 6 5 5 5 5 6 5 5 6 8 8 8 8 11 14 14 15 15 17 20 22 24 26 28 29 30 29 30 29 28 26 24 26 29 29 31 34 34 35 37 38 38 38 36 35 34 33 32 32 31 30 29 29 28 27 27 27 29 29 28 28 27 25 23 20 21
4 3 3 4 3 3 3 2 2 3 3 3 1 3 4 8 8 9 8 9 12 13 11 8 7 7 6 6 6 6 6 6 5 6 5 5 5 5 6 9 11 10 7 8 11 13 15 15 15 16 18 20 23 25 27 29 30 31 31 30 29 29 28 26 26 26 28 31 32 33 35 37 38 38 37 36 35 34 33 33 32 32 31 30 29 29 28 28 29 29 28 28 27 26 26 24 23
4 3 3 4 4 3 3 3 2 1 3 5 3 3 3 7 7 6 5 6 10 11 9 8 6 6 5 6 6 6 5 4 5 6 6 5 5 5 6 8 10 10 9 9 11 12 14 15 15 16 18 20 22 24 26 29 30 31 31 30 28 28 28 25 24 25 26 28 30 32 33 35 37 37 37 36 35 35 34 33 33 33 33 32 31 30 29 28 29 30 30 29 29 28 28 26 24
3 2 3 4 4 3 3 2 1 2 1 6 6 4 4 5 6 5 2 3 7 8 7 6 5 5 6 6 7 6 5 4 3 3 4 4 4 3 4 6 9 11 11 10 10 12 14 16 17 17 19 20 22 24 26 28 29 30 31 31 29 27 26 23 22 23 25 27 29 31 32 34 36 38 38 37 36 36 35 34 33 34 34 33 32 31 30 29 30 31 31 30 30 29 28 27 26
0 3 3 4 4 4 3 2 2 2 2 7 7 5 3 4 5 5 3 3 5 4 3 5 4 5 6 7 6 6 5 2 1 3 4 5 4 2 3 6 9 11 11 11 12 12 14 16 17 18 19 21 22 24 25 27 29 30 31 31 30 28 26 24 23 24 25 27 29 32 33 34 36 38 38 38 37 36 35 35 34 34 34 34 33 33 32 31 30 31 31 30 30 30 29 28 28
2 3 3 3 4 3 4 4 3 1 5 6 5 3 4 5 5 5 5 5 4 5 1 4 6 6 6 7 6 5 5 3 2 2 3 3 2 3 5 8 10 11 11 12 13 13 14 16 17 18 19 20 22 23 25 26 28 30 31 31 31 30 28 28 27 28 29 29 31 32 33 33 34 36 37 38 38 38 37 36 36 35 35 35 35 34 33 31 30 30 31 31 31 31 30 29 29
4 3 3 2 3 2 2 2 1 3 5 4 3 2 4 7 7 7 10 11 9 7 5 6 8 7 7 7 6 5 5 5 5 5 5 5 5 6 6 8 10 12 13 13 12 13 14 14 15 17 18 19 21 22 24 26 28 30 31 31 31 30 30 30 30 30 31 32 32 31 32 33 34 35 37 39 41 40 39 39 38 37 37 36 36 35 34 33 31 31 31 32 32 32 31 31 31
4 4 4 4 2 1 3 3 2 3 3 3 3 0 2 6 6 8 12 13 10 9 8 9 9 9 8 8 6 5 6 6 5 5 6 6 6 7 6 7 9 12 13 13 12 13 13 14 15 17 18 19 21 23 25 27 28 30 31 31 31 31 31 31 32 32 32 33 32 32 34 35 35 37 39 41 42 41 41 40 39 38 38 37 36 36 35 34 33 32 32 32 33 33 32 32 32
4 4 5 4 4 4 4 3 3 4 3 3 3 1 3 4 4 5 9 10 8 8 8 8 9 9 5 4 5 5 7 6 5 5 6 6 7 7 6 7 10 12 11 11 12 13 14 15 16 18 20 21 22 24 26 27 29 29 30 32 32 32 32 33 33 33 33 33 33 33 34 35 36 38 40 40 40 39 40 40 39 39 38 37 37 36 36 35 34 33 33 33 33 32 32 33 33
2 3 4 2 4 4 2 2 4 2 2 3 2 3 5 5 8 12 9 9 8 6 7 8 10 8 3 4 6 6 6 6 5 5 6 7 7 6 6 8 11 11 11 11 12 13 15 16 17 19 21 21 23 25 27 28 29 29 30 31 31 32 32 33 33 33 33 33 34 34 35 36 37 37 38 38 38 38 39 40 39 39 38 37 37 37 36 35 35 34 34 34 33 33 33 33 33
2 2 3 5 4 4 2 2 1 3 1 4 1 4 6 3 9 13 7 7 7 3 2 6 8 5 5 7 7 7 7 7 6 6 7 8 7 6 7 10 12 12 12 13 14 14 15 16 17 19 21 22 23 25 27 28 28 28 29 29 30 31 31 32 33 33 33 33 33 34 34 35 36 36 36 37 37 38 38 39 39 39 38 38 37 37 37 36 35 35 35 35 35 34 34 34 33
4 3 5 3 1 3 3 1 3 3 2 4 1 5 6 1 4 8 8 7 8 5 2 2 4 4 6 7 7 7 6 5 6 7 7 7 7 6 8 11 14 14 14 14 14 14 15 15 16 18 20 22 24 25 27 28 28 28 28 28 29 30 30 30 31 31 31 31 31 33 33 34 35 35 36 36 36 36 37 37 38 38 38 38 38 38 37 36 36 35 35 36 35 34 34 34 34
3 3 2 2 3 1 1 2 1 0 2 4 3 5 5 5 5 6 7 9 10 7 3 1 5 6 7 7 7 7 5 5 6 7 7 7 7 7 8 11 15 15 15 14 12 13 14 15 16 18 20 21 22 23 25 27 27 28 28 27 28 29 29 30 29 28 28 29 31 31 32 34 34 34 34 34 35 35 35 36 37 37 38 37 37 37 37 37 36 36 36 36 35 34 35 35 35
1 2 2 1 3 3 2 2 3 3 2 2 4 5 4 7 6 6 9 11 9 7 5 5 8 8 7 7 7 7 6 6 7 7 7 8 8 8 10 13 15 14 14 14 13 14 14 15 17 18 20 21 21 22 23 25 26 27 27 27 26 27 28 29 29 28 27 28 29 30 31 32 33 33 33 34 34 34 35 35 35 36 37 37 37 36 36 36 36 36 36 36 36 35 35 36 36
3 2 2 1 2 2 2 2 2 4 2 2 1 5 7 6 5 7 10 10 8 7 6 7 8 7 8 7 7 7 7 7 7 7 8 8 8 9 12 15 15 13 13 13 14 16 16 16 18 19 20 21 22 22 22 24 25 26 26 26 26 25 26 27 28 29 29 29 28 29 30 30 30 32 32 33 34 34 34 34 34 35 36 36 36 36 36 36 36 36 36 36 36 36 36 37 37
6 6 6 5 4 3 2 3 2 2 3 3 3 4 10 6 4 6 8 7 7 6 6 7 7 7 8 7 8 8 7 8 9 9 8 8 8 8 10 12 12 12 13 13 14 17 18 18 19 19 20 22 22 22 22 23 24 25 26 25 24 24 23 24 26 27 29 29 29 28 28 27 28 30 31 32 33 33 33 33 33 34 35 35 35 35 35 35 36 36 36 36 36 36 36 36 36
Wind_Direction
301 309 316 319 317 328 322 159 30 314 106 256 256 248 252 230 248 289 287 285 282 261 224 236 166 134 109 148 174 182 177 173 170 152 205 248 184 181 182 185 197 190 183 182 182 188 188 190 193 193 196 200 201 199 197 197 197 196 194 194 192 192 191 193 194 189 194 194 198 205 208 210 208 211 206 197 194 205 225 252 277 292 293 290 316 340 334 330 329 334 337 337 333 331 330 330 328
296 304 313 315 319 329 274 76 131 280 122 255 257 207 239 344 334 278 259 241 222 246 218 228 185 105 63 101 124 127 235 220 188 176 223 255 168 187 185 190 200 194 187 186 185 189 190 190 192 193 195 200 200 197 196 197 197 195 196 196 194 195 193 194 195 191 193 194 199 206 210 209 211 215 205 198 194 204 219 238 261 279 292 293 323 332 331 327 326 334 336 334 333 332 331 330 328
291 296 308 318 323 129 315 30 166 197 190 235 254 240 269 354 290 274 256 238 242 266 23 222 209 130 82 68 127 139 256 251 196 198 285 183 182 196 188 191 201 202 193 191 190 190 193 191 191 192 193 198 198 196 197 198 197 196 198 197 196 196 196 196 195 194 195 195 201 206 210 212 212 211 203 201 201 209 223 233 250 266 288 293 308 321 325 324 326 334 333 334 333 331 332 330 328
286 290 303 324 342 38 95 234 192 173 204 213 250 253 246 243 258 276 259 249 259 248 269 217 226 228 108 157 204 155 248 266 212 181 169 197 195 197 187 191 203 204 199 198 195 192 196 193 192 192 191 194 194 194 197 198 196 197 198 198 197 197 198 198 196 196 196 198 202 207 210 214 210 207 206 204 208 214 227 237 249 260 278 278 277 312 312 319 329 332 331 332 331 331 331 329 326
279 282 288 297 268 284 129 213 184 182 211 180 239 254 184 212 264 292 277 281 281 233 229 183 242 270 114 222 185 163 227 264 240 187 195 205 193 194 189 192 200 200 200 200 198 196 197 196 194 192 191 193 192 193 195 195 195 197 198 198 198 198 199 198 198 197 198 200 202 209 211 212 210 209 209 207 213 218 229 238 249 254 267 264 246 295 303 312 323 326 329 331 331 330 329 328 326
280 287 279 237 226 287 157 240 219 217 218 178 234 257 201 220 291 304 296 305 290 255 244 247 232 220 256 260 194 204 208 150 172 193 211 199 188 194 192 193 197 198 198 198 200 199 199 198 196 194 193 193 194 195 195 195 195 196 197 198 199 199 200 199 199 199 200 202 204 210 211 211 212 212 212 212 216 221 230 235 247 250 256 254 234 273 297 306 316 322 327 331 330 327 326 328 328
291 297 302 217 294 20 193 232 223 230 227 194 222 258 247 252 288 292 293 309 299 268 230 230 227 113 236 271 247 238 211 178 156 201 210 190 189 193 192 194 195 197 198 199 201 202 200 199 198 197 195 195 196 196 196 197 196 195 196 199 201 200 201 200 200 201 202 203 207 212 213 212 214 217 217 216 218 224 233 236 245 248 249 248 233 255 286 298 312 318 325 330 325 324 325 327 330
301 234 40 184 250 280 205 230 229 218 232 221 224 258 260 262 270 268 274 269 260 257 219 237 218 120 267 272 224 256 213 199 213 225 202 188 192 191 193 196 195 196 198 200 201 202 201 200 201 200 198 196 197 197 198 197 196 196 198 199 201 203 202 202 202 203 203 204 210 214 214 214 217 222 221 219 221 227 236 241 245 248 247 240 234 247 272 285 305 312 324 329 322 323 326 332 337
292 213 307 185 218 252 231 230 235 223 241 251 250 262 265 262 254 249 266 269 257 238 232 235 185 186 267 251 236 283 264 207 217 219 200 194 195 192 195 199 199 196 196 200 200 202 201 201 202 203 202 198 198 198 199 198 197 198 201 202 203 205 204 204 204 204 204 206 212 215 215 216 220 225 226 223 222 228 236 245 248 253 250 240 232 238 261 274 295 301 323 326 320 324 330 340 341
218 223 219 205 207 235 241 231 230 235 241 239 244 258 271 275 271 264 262 271 257 232 258 234 176 237 237 227 245 289 266 208 202 197 197 198 196 194 198 200 205 201 197 199 200 201 201 203 204 206 205 202 201 201 201 200 201 201 203 205 206 207 205 205 205 205 206 209 213 216 217 218 223 226 229 226 222 226 234 245 251 256 254 246 234 231 248 260 281 289 320 318 318 331 340 342 337
303 289 182 217 222 229 237 233 233 244 250 243 248 253 268 277 282 280 267 268 245 216 269 102 215 241 207 272 253 277 230 193 193 195 192 191 195 198 200 200 205 208 205 201 201 202 201 204 207 209 210 208 206 205 205 203 204 203 203 206 209 207 205 207 206 207 207 211 215 216 219 220 225 227 229 230 224 226 233 243 250 255 256 252 240 235 239 248 270 278 313 314 325 341 345 340 334
188 322 8 246 227 229 226 228 239 243 255 249 254 248 260 274 277 278 269 265 244 225 244 180 197 181 164 289 257 298 234 196 202 199 189 187 197 202 203 202 204 211 212 207 204 204 203 204 207 210 212 213 211 208 208 206 207 206 205 205 208 207 204 207 207 208 209 212 216 217 220 223 227 229 232 235 229 230 235 240 247 252 254 254 243 239 236 241 262 268 312 330 342 347 343 337 336
177 160 227 257 217 217 215 225 236 234 252 236 239 240 240 268 265 256 254 264 253 262 249 209 183 138 200 269 270 314 253 211 204 193 189 189 198 203 206 205 206 210 212 211 209 209 208 208 209 210 213 215 214 212 210 210 209 209 209 205 205 207 204 206 208 209 211 212 216 219 221 224 228 231 235 237 233 235 237 238 243 248 253 253 246 242 234 238 254 264 330 9 5 349 343 338 341
181 158 184 252 242 219 219 232 232 227 246 219 227 244 231 248 250 240 228 277 267 220 243 207 161 133 237 274 302 301 255 219 197 191 191 190 197 202 209 208 207 210 211 213 213 214 213 213 213 213 215 216 216 214 213 213 213 212 210 207 207 207 205 207 210 211 212 213 216 219 222 225 229 231 234 238 235 234 237 238 240 245 250 249 246 241 231 236 248 260 11 57 51 0 345 342 346
180 144 156 244 263 238 220 226 230 234 240 198 220 235 235 240 237 246 226 258 272 226 224 189 155 171 215 206 251 255 254 213 189 192 192 190 196 201 209 210 210 212 213 214 215 218 217 216 216 217 218 217 218 216 215 215 216 214 211 211 210 207 207 208 210 212 212 213 216 219 222 226 229 230 232 236 236 235 236 238 240 242 247 246 243 238 225 230 239 217 80 106 84 7 344 345 347
169 120 143 235 241 237 220 214 217 234 239 208 229 226 236 253 233 248 233 218 273 271 183 199 183 189 185 186 226 245 247 191 186 192 190 191 195 199 208 209 213 214 215 216 217 220 220 220 219 219 220 219 220 218 217 217 217 216 214 215 211 208 209 209 210 212 213 214 216 219 224 226 228 228 228 232 235 236 236 237 240 240 243 240 238 233 218 221 224 186 125 120 97 0 346 348 346
116 125 202 235 227 228 212 202 202 216 237 223 241 229 223 263 264 249 248 175 236 279 268 236 234 207 192 208 248 269 193 178 180 182 183 189 194 198 207 209 211 212 215 217 218 220 221 222 222 222 222 221 222 220 219 219 218 217 216 216 213 210 211 212 212 213 215 215 217 220 224 226 227 227 227 231 233 236 234 235 239 239 238 230 231 225 211 212 206 185 153 128 52 348 346 348 344
155 155 214 230 215 218 207 212 227 235 258 243 251 249 220 255 289 299 307 290 251 277 279 271 285 269 246 252 279 294 188 179 175 177 178 186 194 199 208 210 208 210 214 215 218 220 221 223 223 224 224 223 222 221 220 220 220 218 217 218 216 213 212 215 215 215 216 216 218 220 223 224 223 225 227 230 233 234 229 226 233 237 235 224 224 214 203 203 195 184 182 200 339 336 337 342 340
180 163 213 228 202 218 245 252 272 271 274 286 296 296 271 245 260 309 291 276 280 284 276 277 283 277 274 269 275 238 186 181 179 181 180 189 196 199 208 211 208 211 212 214 218 220 222 223 224 225 226 225 223 222 221 220 221 219 218 219 218 216 213 216 218 218 218 219 220 220 222 222 222 225 227 229 230 227 220 220 231 236 231 221 220 207 196 193 190 189 201 227 330 319 324 334 334
192 185 225 240 220 245 266 266 271 269 277 296 301 303 298 268 248 241 270 270 266 257 257 261 263 262 267 267 263 214 190 191 192 190 191 200 203 202 206 209 209 212 214 217 221 221 222 223 225 227 227 226 224 222 221 221 221 220 220 220 220 218 215 216 220 221 221 221 222 221 221 220 222 224 226 226 223 219 217 223 239 238 223 216 215 201 191 188 190 200 216 225 301 302 310 322 328
191 202 217 227 223 241 253 254 261 268 275 280 284 294 290 279 263 225 255 272 265 251 247 239 245 253 256 261 254 206 195 201 205 205 208 213 213 211 213 213 214 217 220 220 221 222 224 226 227 228 228 227 226 224 222 222 222 220 221 221 221 219 217 217 220 223 223 223 224 223 221 221 222 223 224 222 218 218 219 232 244 232 215 211 206 193 187 188 193 209 221 212 244 296 302 312 324
188 224 214 220 220 234 249 247 249 256 267 273 276 279 278 275 266 239 242 251 252 253 246 227 234 246 252 260 251 205 198 209 210 214 221 224 221 220 223 223 222 223 223 223 225 227 228 228 229 228 227 227 227 226 225 224 222 221 221 221 221 220 219 219 220 223 224 225 225 224 221 221 222 222 224 220 217 218 223 237 240 223 211 204 195 187 185 187 195 208 208 200 233 282 293 308 321
215 251 222 227 228 232 250 248 246 244 254 263 263 269 273 275 274 257 242 245 254 256 251 241 245 248 251 262 255 215 205 212 214 216 220 225 224 223 226 228 228 228 226 228 231 231 230 230 230 229 228 228 228 228 226 225 224 224 223 222 221 221 220 220 220 223 225 227 227 226 222 220 221 221 223 220 217 218 224 237 235 221 210 201 189 184 186 187 195 206 199 204 232 259 279 303 317
213 254 252 237 233 234 245 252 254 252 254 257 259 272 271 266 270 265 253 256 260 261 264 265 264 260 250 254 252 238 224 220 220 222 223 226 227 228 230 231 233 233 230 232 234 233 233 232 230 229 229 229 228 227 226 226 225 225 225 223 222 222 221 221 222 224 225 227 227 227 224 222 222 221 221 219 217 218 225 235 233 221 208 199 190 187 191 191 199 209 206 217 231 242 267 297 312
212 239 255 244 239 236 244 252 256 257 257 261 269 271 264 259 266 272 269 263 260 263 272 266 266 265 250 249 252 251 246 239 234 230 230 232 233 235 236 236 236 236 234 236 237 235 237 236 231 229 229 230 229 227 225 225 226 225 225 224 223 223 223 223 224 225 225 227 227 227 226 223 222 221 221 220 218 219 225 235 230 217 209 203 199 197 198 197 205 213 212 224 228 235 259 290 303
214 221 239 243 251 245 243 249 251 253 250 252 265 268 266 263 271 275 260 256 262 266 264 260 263 264 255 252 251 251 252 250 246 241 240 240 236 236 239 239 237 236 239 240 238 238 240 237 233 231 230 230 228 225 224 224 225 225 225 225 225 224 224 225 225 226 227 227 226 226 226 224 222 221 221 221 218 219 227 232 226 216 212 211 213 210 204 202 208 212 215 223 224 228 249 276 293
217 225 243 243 252 257 250 258 256 253 253 246 251 263 268 263 250 265 254 252 262 257 255 259 261 260 254 252 249 249 252 252 251 247 248 246 236 232 238 239 236 238 240 239 239 240 240 236 234 233 230 229 227 225 224 224 224 225 226 226 226 225 225 225 225 226 227 227 227 226 226 225 223 221 220 221 219 222 228 226 220 216 214 217 220 213 206 206 208 213 217 220 219 222 237 261 284
260 255 280 265 265 276 261 260 258 251 254 236 228 259 269 267 200 249 249 250 268 252 258 263 260 259 254 252 252 251 253 253 252 248 244 245 239 234 237 238 237 239 238 238 241 240 237 235 234 233 230 227 225 225 224 224 224 226 226 226 226 226 225 225 225 226 227 228 227 225 225 224 221 219 219 221 219 223 223 218 217 216 216 220 218 209 204 206 207 210 211 210 213 220 233 248 275
289 267 294 281 303 295 257 252 250 231 239 220 185 267 269 237 231 246 248 253 267 265 266 263 259 262 258 256 256 254 253 253 253 245 240 243 244 239 237 240 239 238 240 242 242 237 236 236 234 232 229 226 224 225 225 224 225 225 225 225 226 226 225 225 225 226 228 228 226 223 223 222 219 217 217 220 220 221 217 214 217 216 218 219 211 205 203 204 206 204 202 206 211 220 230 237 268
290 285 227 278 328 294 256 249 238 221 231 186 148 266 264 239 240 250 256 247 253 265 267 263 263 265 263 260 258 258 255 252 248 243 244 244 246 243 240 244 242 239 243 244 240 236 236 235 232 230 227 225 225 225 224 223 224 223 224 225 225 225 225 225 225 227 228 228 225 222 220 220 218 216 216 219 218 216 214 215 218 218 218 212 204 205 205 206 208 205 205 208 209 217 222 229 265
293 291 248 267 295 279 280 267 198 205 235 163 157 244 259 252 252 254 251 227 232 257 266 264 263 263 264 261 256 260 257 247 243 245 246 245 245 245 242 246 245 242 243 241 239 238 236 233 230 229 226 225 224 223 223 223 223 223 224 224 224 224 224 224 225 226 227 226 225 222 220 218 217 215 216 218 216 214 215 217 220 221 215 205 200 205 209 211 210 209 211 210 203 208 214 219 251
338 264 283 297 224 268 301 284 187 202 252 154 166 226 263 262 264 260 242 189 210 248 268 272 271 272 272 271 262 258 261 254 247 248 249 248 247 246 244 247 246 242 242 240 240 238 233 231 229 228 226 225 223 223 224 223 223 223 223 224 223 223 223 224 225 225 226 225 225 223 221 218 216 216 216 216 215 214 216 219 220 219 210 204 203 206 211 214 210 206 208 209 203 200 209 212 215
349 209 251 270 244 279 308 293 237 210 226 163 198 227 269 264 267 274 256 168 235 258 274 278 278 279 277 275 267 257 263 263 255 250 251 250 249 248 246 246 245 242 242 240 238 234 230 228 226 226 226 225 224 223 223 222 221 221 222 222 223 223 222 224 224 224 225 224 224 223 222 220 217 216 216 215 214 214 217 219 219 216 208 207 210 210 212 214 209 202 198 205 210 204 205 205 187
300 247 235 254 249 266 294 301 314 110 135 209 230 243 261 267 278 285 279 269 276 275 276 278 277 277 274 270 266 260 259 260 259 251 250 251 251 251 249 247 247 243 241 240 237 234 231 228 225 225 225 225 224 222 220 219 219 220 220 221 222 222 222 224 224 223 224 224 223 222 222 220 218 216 216 215 213 215 217 219 218 213 209 213 215 213 215 213 204 200 197 201 212 213 210 209 192
227 216 217 269 270 258 265 272 295 322 234 229 238 251 260 269 274 275 276 274 274 271 270 273 272 271 272 270 265 260 255 256 256 251 253 257 259 258 254 250 248 244 241 239 237 234 231 227 223 222 221 221 221 220 218 216 216 217 217 218 219 220 221 222 222 223 223 223 223 222 222 221 219 217 217 216 214 215 217 217 217 213 213 216 216 215 215 206 197 199 204 202 203 211 219 216 194
194 201 210 269 286 273 264 261 259 257 265 250 240 252 263 271 273 274 277 271 264 268 268 266 267 269 271 269 263 256 253 253 253 258 263 264 260 255 249 245 244 243 241 238 233 229 225 222 219 217 217 218 216 213 212 210 210 211 212 213 215 217 218 219 221 222 223 223 223 222 222 222 220 218 217 217 215 215 217 217 217 215 215 216 215 215 210 200 195 199 204 201 196 196 202 206 194
244 268 277 274 275 281 278 275 271 218 235 263 246 254 267 271 276 278 277 273 264 264 264 265 266 268 267 263 260 254 249 254 262 267 261 247 229 222 221 225 229 231 232 231 227 224 221 219 216 214 214 214 212 209 207 205 204 205 207 209 212 214 215 216 218 220 222 223 222 222 222 222 221 219 218 217 216 216 217 217 218 215 213 214 215 215 208 199 197 200 201 199 198 193 187 192 191
277 268 284 286 262 275 280 276 287 246 211 272 278 280 277 275 280 279 276 271 262 255 256 263 266 267 267 261 259 255 256 270 282 265 230 198 179 169 176 189 200 208 214 218 219 219 217 216 215 214 212 211 212 211 209 207 208 208 209 211 212 213 214 215 217 219 220 221 222 221 222 223 222 220 219 218 217 216 216 216 217 213 210 210 213 215 210 202 200 201 200 197 198 200 195 192 188
254 248 279 285 263 286 286 274 311 10 195 280 309 302 286 284 281 277 273 265 260 253 244 252 260 265 265 262 260 259 267 275 258 231 210 202 181 156 161 166 179 194 199 206 211 213 212 212 214 214 212 212 213 213 212 212 213 214 214 214 214 213 215 217 219 220 220 220 221 221 221 223 223 222 220 219 218 218 217 216 215 212 209 208 210 213 210 205 202 202 203 202 196 196 201 198 195
232 230 260 274 281 325 286 290 347 339 263 276 308 303 286 287 282 275 274 267 264 259 245 244 246 249 256 262 264 254 251 239 216 224 224 218 197 170 172 175 186 195 196 200 203 207 208 210 212 213 214 214 213 213 213 214 214 213 214 217 217 215 218 219 219 221 220 219 220 220 221 223 223 222 221 220 219 219 218 218 216 212 210 210 210 211 211 207 204 203 204 206 200 192 194 198 200
242 221 226 256 269 245 241 296 339 325 305 314 332 309 283 282 281 281 290 281 267 253 249 257 248 244 254 266 265 243 229 204 192 215 224 211 212 205 189 183 193 203 211 216 214 212 212 212 213 215 215 215 213 212 212 211 209 207 206 209 210 211 214 214 214 217 217 217 217 218 219 221 222 223 221 220 220 221 220 219 217 215 212 212 212 214 215 209 206 206 205 207 206 200 196 196 201
288 235 219 238 259 259 260 310 353 339 320 357 24 340 285 290 292 285 295 300 289 271 257 270 270 264 256 250 246 232 228 216 199 214 225 221 229 234 227 210 204 214 227 230 228 225 223 219 216 216 216 215 214 212 211 209 206 203 199 195 194 197 202 206 209 212 212 213 215 216 218 219 221 222 221 220 221 222 221 220 219 217 215 214 213 216 218 213 208 208 208 209 211 210 205 196 200
293 254 206 219 240 258 267 288 5 290 276 311 61 93 274 296 288 271 279 292 290 286 284 282 278 268 244 229 232 224 222 222 223 240 238 229 228 238 255 242 224 231 241 238 232 226 225 225 220 217 217 215 214 212 210 209 206 204 202 201 199 199 203 209 212 214 214 214 215 216 217 218 220 222 221 221 222 223 222 221 220 219 218 217 216 217 218 216 213 211 212 213 213 213 211 204 204
256 242 144 136 157 209 225 201 193 240 282 303 77 146 255 287 272 262 279 286 283 286 293 294 277 256 238 234 234 219 215 208 209 228 234 233 226 216 231 234 228 232 239 236 230 224 222 225 224 221 218 217 216 214 211 210 208 207 206 206 206 207 210 213 214 214 216 216 214 215 217 217 219 221 222 222 222 223 223 222 221 221 220 219 218 219 219 218 216 215 214 216 216 216 216 215 212
247 217 133 99 111 151 134 141 223 296 355 306 284 145 217 272 270 279 289 273 280 290 293 297 291 274 262 248 230 218 233 234 214 213 220 233 236 229 232 235 229 224 225 231 229 223 219 222 225 224 220 218 217 215 213 213 212 211 209 208 209 212 214 215 215 214 215 215 214 214 216 216 218 220 222 223 222 223 223 223 222 222 221 221 220 221 222 220 218 217 215 215 216 218 220 221 219
251 155 105 51 61 79 83 123 224 35 26 263 245 181 216 265 278 287 267 232 264 278 284 285 282 278 269 249 237 245 273 281 250 239 248 264 275 256 230 226 221 213 215 222 222 219 216 218 221 221 220 218 217 216 215 214 214 214 212 211 211 212 212 213 212 211 212 212 212 212 214 215 217 218 220 222 222 223 224 224 223 223 223 222 222 222 222 220 219 219 219 218 218 219 220 221 223
252 63 53 16 21 38 33 52 71 54 264 256 238 203 225 279 281 255 214 225 236 226 286 313 307 290 263 248 251 265 279 284 300 317 312 316 321 282 212 210 211 208 210 214 214 218 217 217 219 220 220 219 217 217 217 217 217 216 215 214 213 212 210 208 206 206 207 208 209 211 213 214 215 217 219 220 221 222 223 224 224 225 225 224 224 223 223 221 220 220 221 221 221 222 221 221 223
86 66 61 11 340 14 16 3 45 179 246 261 255 207 200 241 262 258 256 281 253 189 176 316 299 282 260 260 269 267 254 221 205 248 266 281 268 227 222 219 213 209 213 215 216 219 219 218 218 218 219 217 218 219 219 220 219 219 219 218 217 215 211 208 206 206 206 207 208 210 211 212 213 216 218 219 220 220 222 224 224 224 225 225 225 225 225 224 223 221 221 221 222 223 224 222 222
98 109 93 65 317 332 334 297 248 226 245 273 286 187 203 238 251 260 266 272 263 233 229 261 266 257 247 250 256 254 235 205 197 203 211 219 219 221 227 223 216 214 217 220 221 221 221 221 220 220 220 218 218 220 220 222 222 222 221 220 220 218 215 214 212 211 211 210 210 209 208 209 211 213 215 218 220 220 220 222 223 223 224 226 227 227 227 226 224 222 222 222 223 224 225 224 223
144 156 143 143 168 216 255 260 260 261 261 285 306 267 262 280 262 237 244 254 257 253 248 244 241 240 238 233 226 230 230 217 210 210 214 220 222 224 227 226 224 223 224 226 226 223 222 223 222 224 224 221 219 219 220 222 223 224 224 223 222 220 219 218 217 216 215 214 212 211 212 212 212 214 216 219 221 220 221 222 223 224 225 226 227 228 227 226 225 224 223 224 225 226 227 226 227
178 162 137 154 162 165 218 226 214 249 283 295 299 280 218 247 265 238 237 252 259 255 254 248 243 248 251 228 210 217 231 231 226 225 232 235 232 231 234 232 231 232 234 233 230 227 224 224 224 225 226 223 221 220 221 221 223 224 224 224 223 222 222 221 221 220 219 218 217 216 217 216 217 219 220 222 223 222 222 223 224 226 226 226 227 228 228 226 226 226 226 226 227 228 228 228 229
224 139 113 191 193 159 189 203 182 197 321 300 265 245 224 223 282 286 275 276 275 251 241 244 250 254 216 185 204 213 223 227 225 230 240 245 244 242 239 234 232 233 236 236 234 230 227 227 226 227 229 227 224 223 222 224 225 225 225 224 223 223 222 222 222 222 222 222 221 220 221 222 222 223 224 224 225 224 225 224 225 227 227 227 228 229 229 228 226 226 226 227 227 228 228 229 230
184 140 176 225 191 126 131 258 340 72 248 280 260 258 281 311 294 293 310 316 310 312 235 234 242 231 179 190 205 209 218 219 216 221 228 237 241 241 240 235 229 226 227 230 232 230 230 231 230 230 232 230 228 227 226 226 227 227 228 227 225 224 223 223 224 223 224 224 225 225 226 226 227 227 227 227 227 227 227 227 227 228 228 228 228 229 230 229 228 227 227 227 228 229 229 230 231
135 175 223 228 118 74 96 215 342 42 217 274 262 242 272 313 284 307 341 324 302 313 342 260 245 208 193 213 215 213 227 238 243 240 238 240 241 240 241 238 231 223 222 227 230 231 231 233 233 233 233 232 230 228 228 228 227 228 229 229 229 227 226 226 227 227 227 225 226 227 227 228 229 230 230 230 229 229 229 229 228 229 229 229 229 230 230 230 229 228 228 229 231 231 230 231 232
137 198 226 122 139 162 85 155 238 230 236 283 290 268 256 208 228 285 291 276 274 285 307 228 222 215 215 227 227 232 252 259 253 248 247 246 242 238 236 236 234 227 224 226 229 230 230 232 234 235 237 238 236 232 231 230 230 230 231 232 232 232 230 230 230 230 230 229 229 229 229 230 231 232 231 231 231 230 230 230 230 230 230 230 230 230 230 230 230 229 229 230 231 231 231 232 233
63 306 329 23 167 177 161 163 172 177 216 270 304 310 268 215 215 224 238 253 258 258 258 229 221 219 221 225 223 229 235 235 237 239 244 246 243 242 237 233 232 229 227 226 225 228 230 233 235 236 239 240 238 236 233 232 232 232 233 233 234 234 234 233 232 232 232 233 233 233 233 233 233 233 233 233 233 232 232 231 231 231 230 230 231 231 231 230 230 230 230 230 231 231 231 233 234
162 211 245 231 191 175 208 227 142 137 168 188 252 295 273 238 211 215 234 253 252 230 222 235 236 225 222 220 217 221 219 223 232 232 237 243 247 253 247 241 239 237 233 226 225 228 231 234 236 237 239 238 237 235 233 232 232 231 232 233 234 234 235 235 234 233 233 235 236 236 236 237 236 235 234 234 234 233 234 234 233 232 231 231 232 231 232 231 230 230 230 231 232 231 231 233 234
165 186 199 190 176 143 159 260 266 119 155 180 157 268 277 260 206 228 245 258 264 240 214 235 252 237 228 222 217 218 216 220 226 224 228 236 241 250 253 251 251 245 234 225 225 228 230 234 237 239 239 239 238 236 233 233 232 230 231 232 234 235 235 235 235 235 235 235 236 236 237 237 237 237 236 235 235 235 235 235 234 234 233 232 233 233 233 232 230 230 230 231 231 231 232 232 233